�������l�o���
Date,Time,MP-1(��Sv/h),MP-2(��Sv/h),MP-3(��Sv/h),MP-4(��Sv/h),MP-5(��Sv/h),MP-6(��Sv/h),MP-7(��Sv/h),����,����(m/s),���J
2022/09/16,00:00,0.153,0.144,0.229,0.218,0.215,0.123,0.079,��쐼,3.6,��
2022/09/16,00:10,0.156,0.143,0.228,0.219,0.218,0.124,0.079,��쐼,3.6,��
2022/09/16,00:20,0.155,0.144,0.227,0.218,0.216,0.123,0.079,��,4.3,��
2022/09/16,00:30,0.155,0.144,0.227,0.218,0.216,0.123,0.080,��,4.5,��
2022/09/16,00:40,0.155,0.144,0.228,0.219,0.218,0.123,0.079,��쐼,4.2,��
2022/09/16,00:50,0.154,0.145,0.230,0.219,0.216,0.123,0.079,��,4.2,��
2022/09/16,01:00,0.155,0.143,0.228,0.218,0.218,0.124,0.079,��,3.5,��
2022/09/16,01:10,0.155,0.144,0.230,0.219,0.217,0.124,0.077,��,4.0,��
2022/09/16,01:20,0.155,0.143,0.230,0.217,0.216,0.122,0.079,��,3.9,��
2022/09/16,01:30,0.155,0.144,0.227,0.220,0.218,0.124,0.078,��,3.8,��
2022/09/16,01:40,0.153,0.143,0.230,0.219,0.217,0.123,0.079,��,4.7,��
2022/09/16,01:50,0.155,0.143,0.228,0.218,0.216,0.123,0.079,��,4.6,��
2022/09/16,02:00,0.155,0.145,0.228,0.218,0.217,0.125,0.078,��,4.8,��
2022/09/16,02:10,0.155,0.143,0.229,0.218,0.216,0.123,0.079,��,3.7,��
2022/09/16,02:20,0.156,0.145,0.226,0.220,0.218,0.124,0.078,��쓌,4.4,��
2022/09/16,02:30,0.155,0.143,0.228,0.218,0.217,0.123,0.079,��쓌,4.6,��
2022/09/16,02:40,0.154,0.144,0.228,0.219,0.216,0.123,0.079,��쓌,2.9,��
2022/09/16,02:50,0.156,0.144,0.229,0.219,0.219,0.124,0.079,��쓌,3.3,��
2022/09/16,03:00,0.154,0.143,0.227,0.218,0.216,0.123,0.078,��,2.8,��
2022/09/16,03:10,0.155,0.144,0.230,0.221,0.218,0.123,0.079,��,3.0,��
2022/09/16,03:20,0.155,0.144,0.228,0.217,0.217,0.124,0.079,��쐼,3.2,��
2022/09/16,03:30,0.155,0.144,0.227,0.219,0.217,0.123,0.079,��,3.1,��
2022/09/16,03:40,0.156,0.143,0.229,0.218,0.218,0.125,0.079,��,3.9,��
2022/09/16,03:50,0.155,0.145,0.229,0.220,0.217,0.123,0.079,��,4.3,��
2022/09/16,04:00,0.156,0.143,0.229,0.219,0.217,0.123,0.079,��쓌,3.9,��
2022/09/16,04:10,0.154,0.146,0.228,0.218,0.216,0.123,0.079,��쓌,3.3,��
2022/09/16,04:20,0.155,0.144,0.230,0.219,0.217,0.124,0.079,��,3.9,��
2022/09/16,04:30,0.156,0.144,0.227,0.219,0.217,0.124,0.079,��,3.9,��
2022/09/16,04:40,0.155,0.143,0.229,0.218,0.217,0.123,0.078,��,2.6,��
2022/09/16,04:50,0.155,0.144,0.227,0.219,0.217,0.124,0.079,��,2.8,��
2022/09/16,05:00,0.155,0.144,0.230,0.221,0.217,0.123,0.079,��,2.7,��
2022/09/16,05:10,0.156,0.144,0.227,0.218,0.218,0.124,0.079,��,3.1,��
2022/09/16,05:20,0.154,0.144,0.229,0.220,0.216,0.123,0.078,��,3.4,��
2022/09/16,05:30,0.155,0.143,0.228,0.217,0.217,0.124,0.079,��,3.5,��
2022/09/16,05:40,0.155,0.144,0.229,0.220,0.216,0.124,0.079,��,3.6,��
2022/09/16,05:50,0.156,0.144,0.228,0.218,0.219,0.124,0.079,��,3.5,��
2022/09/16,06:00,0.154,0.143,0.230,0.219,0.217,0.123,0.080,��,3.5,��
2022/09/16,06:10,0.156,0.144,0.227,0.218,0.218,0.124,0.080,��,3.8,��
2022/09/16,06:20,0.154,0.144,0.229,0.219,0.216,0.123,0.079,��,3.9,��
2022/09/16,06:30,0.155,0.144,0.227,0.218,0.217,0.123,0.080,��쓌,3.9,��
2022/09/16,06:40,0.155,0.143,0.229,0.221,0.218,0.124,0.079,��쓌,4.0,��
2022/09/16,06:50,0.155,0.143,0.227,0.218,0.217,0.124,0.079,��쓌,5.1,��
2022/09/16,07:00,0.156,0.143,0.229,0.218,0.219,0.124,0.078,��쓌,4.9,��
2022/09/16,07:10,0.154,0.144,0.227,0.219,0.215,0.123,0.079,��쓌,4.2,��
2022/09/16,07:20,0.156,0.143,0.227,0.217,0.217,0.124,0.079,��,3.3,��
2022/09/16,07:30,0.154,0.144,0.229,0.218,0.218,0.123,0.079,��쓌,3.1,��
2022/09/16,07:40,0.156,0.144,0.227,0.219,0.215,0.124,0.079,��쓌,2.9,��
2022/09/16,07:50,0.155,0.143,0.226,0.218,0.219,0.124,0.078,��쓌,4.1,��
2022/09/16,08:00,0.155,0.144,0.225,0.216,0.216,0.124,0.079,��쓌,3.8,��
2022/09/16,08:10,0.157,0.143,0.226,0.214,0.215,0.124,0.079,��쓌,4.3,��
2022/09/16,08:20,0.155,0.144,0.225,0.217,0.218,0.123,0.078,��쓌,4.6,��
2022/09/16,08:30,0.154,0.144,0.226,0.220,0.218,0.123,0.078,��쓌,4.8,��
2022/09/16,08:40,0.156,0.144,0.225,0.219,0.215,0.124,0.078,��쓌,3.4,��
2022/09/16,08:50,0.156,0.143,0.226,0.217,0.215,0.124,0.078,��쓌,4.0,��
2022/09/16,09:00,0.154,0.144,0.226,0.218,0.214,0.124,0.078,��쓌,3.8,��
2022/09/16,09:10,0.154,0.142,0.228,0.217,0.217,0.123,0.079,��쓌,4.7,��
2022/09/16,09:20,0.154,0.143,0.228,0.217,0.219,0.123,0.079,��쓌,5.1,��
2022/09/16,09:30,0.153,0.143,0.228,0.218,0.217,0.125,0.079,�쓌,5.9,��
2022/09/16,09:40,0.153,0.145,0.228,0.217,0.216,0.124,0.078,�쓌,5.8,��
2022/09/16,09:50,0.154,0.144,0.228,0.218,0.216,0.124,0.078,��쓌,6.1,��
2022/09/16,10:00,0.154,0.143,0.227,0.218,0.215,0.123,0.078,��쓌,6.6,��
2022/09/16,10:10,0.154,0.143,0.227,0.217,0.215,0.123,0.079,��쓌,6.5,��
2022/09/16,10:20,0.153,0.143,0.228,0.217,0.215,0.123,0.078,��쓌,6.5,��
2022/09/16,10:30,0.155,0.143,0.228,0.217,0.214,0.124,0.078,�쓌,6.1,��
2022/09/16,10:40,0.153,0.143,0.228,0.217,0.215,0.124,0.078,�쓌,6.1,��
2022/09/16,10:50,0.155,0.142,0.228,0.219,0.215,0.123,0.079,�쓌,7.0,��
2022/09/16,11:00,0.154,0.143,0.229,0.219,0.215,0.123,0.078,��쓌,7.1,��
2022/09/16,11:10,0.155,0.143,0.227,0.217,0.215,0.124,0.078,��쓌,7.3,��
2022/09/16,11:20,0.153,0.143,0.227,0.218,0.215,0.124,0.078,��쓌,6.6,��
2022/09/16,11:30,0.155,0.143,0.227,0.217,0.216,0.123,0.078,��쓌,5.9,��
2022/09/16,11:40,0.154,0.143,0.228,0.218,0.216,0.123,0.078,��쓌,5.6,��
2022/09/16,11:50,0.155,0.143,0.228,0.217,0.216,0.123,0.078,��쓌,6.5,��
2022/09/16,12:00,0.154,0.142,0.229,0.217,0.217,0.124,0.078,��쓌,6.5,��
2022/09/16,12:10,0.154,0.143,0.228,0.219,0.216,0.124,0.078,��쓌,6.3,��
2022/09/16,12:20,0.154,0.143,0.228,0.217,0.216,0.123,0.078,��쓌,6.6,��
2022/09/16,12:30,0.154,0.143,0.228,0.218,0.216,0.123,0.079,�쓌,6.2,��
2022/09/16,12:40,0.155,0.143,0.228,0.217,0.216,0.123,0.078,��쓌,6.4,��
2022/09/16,12:50,0.155,0.144,0.227,0.218,0.216,0.123,0.078,��쓌,6.6,��
2022/09/16,13:00,0.154,0.143,0.227,0.218,0.216,0.124,0.078,��쓌,6.9,��
2022/09/16,13:10,0.155,0.143,0.227,0.218,0.217,0.123,0.078,��쓌,7.5,��
2022/09/16,13:20,0.155,0.143,0.229,0.218,0.215,0.124,0.078,��쓌,8.1,��
2022/09/16,13:30,0.154,0.144,0.230,0.217,0.217,0.124,0.078,��쓌,7.6,��
2022/09/16,13:40,0.154,0.144,0.228,0.217,0.215,0.124,0.078,��쓌,7.5,��
2022/09/16,13:50,0.154,0.144,0.229,0.218,0.218,0.123,0.077,��쓌,7.2,��
2022/09/16,14:00,0.154,0.143,0.229,0.218,0.216,0.124,0.077,��쓌,7.4,��
2022/09/16,14:10,0.154,0.143,0.228,0.218,0.216,0.123,0.078,��쓌,7.6,��
2022/09/16,14:20,0.155,0.143,0.229,0.218,0.217,0.124,0.078,��쓌,7.2,��
2022/09/16,14:30,0.154,0.143,0.228,0.219,0.217,0.124,0.079,��쓌,8.1,��
2022/09/16,14:40,0.154,0.143,0.227,0.219,0.216,0.123,0.078,��쓌,8.4,��
2022/09/16,14:50,0.154,0.144,0.228,0.217,0.216,0.124,0.077,��쓌,8.5,��
2022/09/16,15:00,0.154,0.143,0.227,0.218,0.216,0.124,0.078,��쓌,8.7,��
2022/09/16,15:10,0.154,0.144,0.227,0.217,0.216,0.123,0.079,��쓌,7.4,��
2022/09/16,15:20,0.155,0.143,0.227,0.222,0.215,0.124,0.079,��쓌,6.7,��
2022/09/16,15:30,0.155,0.143,0.229,0.220,0.214,0.124,0.078,��쓌,7.6,��
2022/09/16,15:40,0.155,0.143,0.230,0.220,0.215,0.123,0.077,��쓌,6.7,��
2022/09/16,15:50,0.154,0.144,0.228,0.217,0.215,0.123,0.078,��쓌,8.3,��
2022/09/16,16:00,0.155,0.143,0.227,0.221,0.215,0.123,0.078,��쓌,8.2,��
2022/09/16,16:10,0.153,0.143,0.230,0.220,0.214,0.124,0.077,��쓌,8.2,��
2022/09/16,16:20,0.154,0.143,0.230,0.218,0.216,0.124,0.078,��쓌,7.9,��
2022/09/16,16:30,0.156,0.145,0.229,0.219,0.215,0.124,0.078,��쓌,7.5,��
2022/09/16,16:40,0.155,0.143,0.227,0.222,0.215,0.124,0.079,��쓌,7.3,��
2022/09/16,16:50,0.154,0.143,0.232,0.220,0.215,0.124,0.078,��,7.8,��
2022/09/16,17:00,0.154,0.145,0.229,0.217,0.214,0.124,0.079,��쓌,7.2,��
2022/09/16,17:10,0.156,0.144,0.228,0.220,0.218,0.124,0.079,��쓌,7.4,��
2022/09/16,17:20,0.155,0.142,0.230,0.221,0.220,0.123,0.078,��,6.7,��
2022/09/16,17:30,0.153,0.144,0.229,0.218,0.216,0.124,0.078,��쓌,6.9,��
2022/09/16,17:40,0.156,0.144,0.228,0.220,0.216,0.122,0.079,��,7.2,��
2022/09/16,17:50,0.157,0.142,0.230,0.220,0.219,0.123,0.078,��,5.7,��
2022/09/16,18:00,0.154,0.144,0.230,0.218,0.217,0.124,0.079,��,5.6,��
2022/09/16,18:10,0.155,0.144,0.227,0.221,0.216,0.124,0.078,��,4.8,��
2022/09/16,18:20,0.155,0.143,0.232,0.220,0.221,0.123,0.078,��,4.7,��
2022/09/16,18:30,0.155,0.144,0.229,0.219,0.217,0.124,0.079,��쐼,5.1,��
2022/09/16,18:40,0.154,0.143,0.228,0.221,0.217,0.124,0.079,��쐼,5.3,��
2022/09/16,18:50,0.156,0.144,0.230,0.220,0.219,0.123,0.078,��쐼,5.6,��
2022/09/16,19:00,0.155,0.144,0.228,0.219,0.216,0.124,0.079,��쐼,5.1,��
2022/09/16,19:10,0.155,0.144,0.230,0.221,0.217,0.124,0.078,��쐼,5.8,��
2022/09/16,19:20,0.155,0.144,0.230,0.219,0.218,0.123,0.078,��쐼,4.4,��
2022/09/16,19:30,0.155,0.143,0.229,0.221,0.216,0.124,0.080,��쐼,4.3,��
2022/09/16,19:40,0.155,0.145,0.230,0.219,0.218,0.122,0.079,��쐼,4.4,��
2022/09/16,19:50,0.156,0.143,0.228,0.220,0.217,0.124,0.078,��쐼,4.0,��
2022/09/16,20:00,0.154,0.143,0.230,0.221,0.216,0.124,0.078,��쐼,4.0,��
2022/09/16,20:10,0.156,0.143,0.230,0.219,0.219,0.123,0.078,��쐼,4.7,��
2022/09/16,20:20,0.155,0.144,0.229,0.221,0.217,0.124,0.079,��,4.2,��
2022/09/16,20:30,0.156,0.144,0.230,0.220,0.217,0.124,0.079,��,3.8,��
2022/09/16,20:40,0.156,0.144,0.228,0.219,0.218,0.123,0.078,��,4.4,��
2022/09/16,20:50,0.155,0.144,0.231,0.221,0.215,0.124,0.080,��,4.2,��
2022/09/16,21:00,0.156,0.144,0.228,0.218,0.218,0.123,0.079,��,3.5,��
2022/09/16,21:10,0.156,0.144,0.230,0.221,0.218,0.125,0.078,��쐼,3.1,��
2022/09/16,21:20,0.155,0.144,0.229,0.219,0.217,0.124,0.079,��쐼,3.5,��
2022/09/16,21:30,0.156,0.144,0.228,0.218,0.219,0.124,0.078,��쐼,3.3,��
2022/09/16,21:40,0.154,0.144,0.230,0.221,0.215,0.124,0.079,��쐼,4.4,��
2022/09/16,21:50,0.157,0.143,0.229,0.219,0.218,0.124,0.079,��,4.7,��
2022/09/16,22:00,0.155,0.144,0.231,0.222,0.217,0.124,0.079,��,4.4,��
2022/09/16,22:10,0.155,0.144,0.228,0.219,0.216,0.123,0.079,��,4.6,��
2022/09/16,22:20,0.156,0.145,0.231,0.219,0.219,0.124,0.079,��,4.0,��
2022/09/16,22:30,0.155,0.144,0.229,0.220,0.217,0.124,0.078,��,4.8,��
2022/09/16,22:40,0.156,0.144,0.230,0.219,0.217,0.123,0.079,��,4.5,��
2022/09/16,22:50,0.155,0.142,0.230,0.221,0.217,0.124,0.079,��,4.2,��
2022/09/16,23:00,0.156,0.144,0.229,0.218,0.217,0.123,0.079,��,4.1,��
2022/09/16,23:10,0.155,0.144,0.231,0.220,0.219,0.125,0.078,��쐼,4.2,��
2022/09/16,23:20,0.155,0.143,0.228,0.219,0.216,0.123,0.079,��쐼,3.8,��
2022/09/16,23:30,0.155,0.143,0.231,0.221,0.218,0.124,0.078,��쐼,3.8,��
2022/09/16,23:40,0.154,0.145,0.229,0.221,0.216,0.124,0.078,��쐼,4.0,��
2022/09/16,23:50,0.156,0.144,0.230,0.220,0.215,0.124,0.079,��쐼,3.4,��
